TimeEDT,TemperatureF,Dew PointF,Humidity,Sea Level PressureIn,VisibilityMPH,Wind Direction,Wind SpeedMPH,Gust SpeedMPH,PrecipitationIn,Events,Conditions,WindDirDegrees,DateUTC
12:51 AM,60.1,42.1,51,30.12,10.0,North,9.2,20.7,N/A,,Clear,350,2013-05-25 04:51:00
1:51 AM,59.0,43.0,55,30.12,10.0,North,8.1,16.1,N/A,,Clear,350,2013-05-25 05:51:00
2:51 AM,57.9,39.9,51,30.11,10.0,NNW,11.5,24.2,N/A,,Clear,340,2013-05-25 06:51:00
3:51 AM,57.9,39.9,51,30.12,10.0,NNW,11.5,23.0,N/A,,Clear,330,2013-05-25 07:51:00
4:51 AM,55.9,39.9,55,30.14,10.0,North,10.4,20.7,N/A,,Clear,350,2013-05-25 08:51:00
5:51 AM,55.0,37.9,53,30.16,10.0,NNW,11.5,21.9,N/A,,Clear,330,2013-05-25 09:51:00
6:51 AM,55.9,39.9,55,30.18,10.0,NNW,12.7,19.6,N/A,,Clear,330,2013-05-25 10:51:00
7:51 AM,55.0,39.9,57,30.19,10.0,NW,11.5,20.7,N/A,,Clear,320,2013-05-25 11:51:00
8:51 AM,57.0,39.0,51,30.20,10.0,NNW,9.2,20.7,N/A,,Clear,330,2013-05-25 12:51:00
9:51 AM,59.0,39.9,49,30.20,10.0,NNW,8.1,19.6,N/A,,Clear,340,2013-05-25 13:51:00
10:51 AM,61.0,41.0,48,30.19,10.0,NW,9.2,17.3,N/A,,Clear,320,2013-05-25 14:51:00
11:51 AM,62.1,39.9,44,30.20,10.0,NW,11.5,18.4,N/A,,Clear,310,2013-05-25 15:51:00
12:51 PM,63.0,39.0,41,30.21,10.0,WNW,11.5,18.4,N/A,,Clear,300,2013-05-25 16:51:00
1:51 PM,64.9,42.1,43,30.18,10.0,WNW,9.2,17.3,N/A,,Clear,290,2013-05-25 17:51:00
2:51 PM,66.0,42.1,42,30.15,10.0,West,9.2,18.4,N/A,,Clear,280,2013-05-25 18:51:00
3:51 PM,69.1,44.1,40,30.14,10.0,WNW,10.4,21.9,N/A,,Clear,290,2013-05-25 19:51:00
4:51 PM,70.0,39.9,33,30.13,10.0,NW,10.4,19.6,N/A,,Clear,310,2013-05-25 20:51:00
5:51 PM,70.0,41.0,35,30.14,10.0,NW,9.2,18.4,N/A,,Clear,310,2013-05-25 21:51:00
6:51 PM,69.1,39.0,33,30.14,10.0,NW,8.1,16.1,N/A,,Clear,310,2013-05-25 22:51:00
7:51 PM,68.0,35.1,30,30.15,10.0,NW,8.1,17.3,N/A,,Clear,320,2013-05-25 23:51:00
8:51 PM,66.9,39.0,36,30.17,10.0,NW,8.1,-,N/A,,Clear,320,2013-05-26 00:51:00
9:51 PM,64.9,39.9,40,30.18,10.0,NW,5.8,-,N/A,,Clear,310,2013-05-26 01:51:00
10:51 PM,64.0,41.0,43,30.18,10.0,NW,3.5,-,N/A,,Clear,310,2013-05-26 02:51:00
11:51 PM,57.0,45.0,64,30.18,10.0,West,3.5,-,N/A,,Clear,270,2013-05-26 03:51:00